User: anonymous   Login
Location: Unspecified
(0.0000°N, 0.0000°E)
Time: 00:36:28
(UTC+00:00)
Language:

N. Korean satellite - Orbit

View from above orbital plane
View from above orbital plane
View from above satellite
View from above satellite

Ground track
Ground track

The orbit data is extracted from the following two-line orbital elements,

1 39026U 12072A   16145.84146483  .00001943  00000-0  82046-4 0  9998
2 39026  97.2492 170.8358 0044513 109.2601 251.3460 15.23532958190827
Epoch (UTC): 24 May 2016 20:11:42
Eccentricity: 0.0044513
inclination: 97.2492°
perigee height: 464 km
apogee height: 526 km
right ascension of ascending node: 170.8358°
argument of perigee: 109.2601°
revolutions per day: 15.23532958
mean anomaly at epoch: 251.3460°
orbit number at epoch: 19082

The dashed part of the orbit path shows where the satellite is in the earth's shadow,  

DLR